Weather History for Clinton, MO

Change the Weather History Date:

Saturday, February 16, 2013

  Actual Average (KSZL) Record (KSZL)
Temperature  
Mean Temperature 27 °F -  
Max Temperature 35 °F 44 °F 61 °F (2011)
Min Temperature 19 °F 28 °F -5 °F (2007)
Degree Days  
Heating Degree Days 38    
Moisture  
Dew Point 22 °F    
Average Humidity 74    
Maximum Humidity 100    
Minimum Humidity 52    
Precipitation  
Precipitation 0.00 in - - ()
Sea Level Pressure  
Sea Level Pressure 30.23 in    
Wind  
Wind Speed 3 mph (SSW)    
Max Wind Speed 12 mph    
Max Gust Speed 16 mph    
Visibility 8 miles    
Events Rain , Snow    
Averages and records for this station are not official NWS values.
T = Trace of Precipitation, MM = Missing Value Source: NWS Daily Summary

Daily Weather History Graph

Daily Weather History Graph

Search for Another Location

Airport:

Trip Planner

Search our weather history database for the weather conditions in past years. The results will help you decide how hot, cold, wet, or windy it might be!

Date:

Astronomy

Feb. 16, 2013 Rise Set
Actual Time 7:03 AM CST 5:54 PM CST
Civil Twilight 6:36 AM CST 6:21 PM CST
Nautical Twilight 6:05 AM CST 6:52 PM CST
Astronomical Twilight 5:35 AM CST 7:23 PM CST
Moon 10:22 AM CST (2/16) No Moon Set
Length of Visible Light 11h 44m
Length of Day
10h 50m
Waxing Crescent, 39% of the Moon is Illuminated
Feb 16
Waxing Crescent
Feb 17
First Quarter
Feb 25
Full
Mar 4
Last Quarter
Mar 11
New

Hourly Weather History & Observations

Time (CST) Temp. Windchill Dew Point Humidity Pressure Visibility Wind Dir Wind Speed Gust Speed Precip Events Conditions
12:15 AM 28.4 °F 22.2 °F 23.0 °F 80% 30.30 in 5.0 mi North 5.8 mph - N/A Rain Light Freezing Rain
12:35 AM 28.4 °F 22.2 °F 24.8 °F 86% 30.30 in 3.0 mi North 5.8 mph - N/A Snow Light Snow
12:55 AM 28.4 °F - 24.8 °F 86% 30.30 in 1.5 mi Calm Calm - N/A Snow Light Snow
1:15 AM 28.4 °F - 26.6 °F 93% 30.30 in 1.8 mi Calm Calm - N/A Snow Light Snow
1:35 AM 28.4 °F - 26.6 °F 93% 30.29 in 9.0 mi Calm Calm - N/A   Partly Cloudy
1:55 AM 26.6 °F - 24.8 °F 93% 30.29 in 7.0 mi Calm Calm - N/A Snow Light Snow
2:15 AM 26.6 °F - 24.8 °F 93% 30.29 in 9.0 mi Calm Calm - N/A   Mostly Cloudy
2:35 AM 26.6 °F - 24.8 °F 93% 30.29 in 10.0 mi Calm Calm - N/A   Scattered Clouds
2:55 AM 26.6 °F - 24.8 °F 93% 30.29 in 10.0 mi Calm Calm - N/A   Partly Cloudy
3:15 AM 26.6 °F - 23.0 °F 86% 30.29 in 9.0 mi Calm Calm - N/A   Partly Cloudy
3:35 AM 24.8 °F - 23.0 °F 93% 30.28 in 9.0 mi Calm Calm - N/A   Partly Cloudy
3:55 AM 24.8 °F - 23.0 °F 93% 30.28 in 8.0 mi Calm Calm - N/A   Clear
4:15 AM 23.0 °F 15.8 °F 23.0 °F 100% 30.29 in 7.0 mi NW 5.8 mph - N/A   Clear
4:35 AM 23.0 °F - 21.2 °F 93% 30.29 in 7.0 mi Calm Calm - N/A   Clear
4:55 AM 23.0 °F - 21.2 °F 93% 30.30 in 6.0 mi Calm Calm - N/A   Clear
5:15 AM 21.2 °F - 21.2 °F 100% 30.30 in 5.0 mi Calm Calm - N/A   Clear
5:35 AM 21.2 °F - 21.2 °F 100% 30.30 in 5.0 mi Calm Calm - N/A   Clear
5:55 AM 21.2 °F - 19.4 °F 93% 30.30 in 5.0 mi Calm Calm - N/A   Partly Cloudy
6:15 AM 21.2 °F - 19.4 °F 93% 30.31 in 5.0 mi Calm Calm - N/A   Partly Cloudy
6:35 AM 21.2 °F - 19.4 °F 93% 30.31 in 5.0 mi Calm Calm - N/A   Scattered Clouds
6:55 AM 21.2 °F - 19.4 °F 93% 30.31 in 6.0 mi Calm Calm - N/A   Mostly Cloudy
7:15 AM 21.2 °F - 19.4 °F 93% 30.31 in 6.0 mi Calm Calm - N/A   Scattered Clouds
7:35 AM 19.4 °F - 17.6 °F 93% 30.31 in 7.0 mi Calm Calm - N/A   Clear
7:55 AM 23.0 °F - 21.2 °F 93% 30.32 in 8.0 mi Calm Calm - N/A   Clear
8:15 AM 23.0 °F - 21.2 °F 93% 30.32 in 8.0 mi Calm Calm - N/A   Clear
8:35 AM 23.0 °F - 19.4 °F 86% 30.32 in 10.0 mi Calm Calm - N/A   Clear
8:55 AM 24.8 °F - 21.2 °F 86% 30.33 in 9.0 mi Calm Calm - N/A   Clear
9:15 AM 26.6 °F - 19.4 °F 74% 30.33 in 10.0 mi Calm Calm - N/A   Clear
9:35 AM 28.4 °F - 19.4 °F 69% 30.33 in 10.0 mi Calm Calm - N/A   Clear
12:15 PM 33.8 °F 25.8 °F 21.2 °F 60% 30.28 in 9.0 mi WSW 10.4 mph 16.1 mph N/A   Partly Cloudy
12:35 PM 32.0 °F 24.8 °F 21.2 °F 64% 30.27 in 9.0 mi WSW 8.1 mph - N/A   Partly Cloudy
12:55 PM 35.6 °F 29.2 °F 21.2 °F 56% 30.26 in 10.0 mi SW 8.1 mph - N/A   Scattered Clouds
1:15 PM 33.8 °F 25.3 °F 21.2 °F 60% 30.24 in 9.0 mi WSW 11.5 mph - N/A   Mostly Cloudy
1:35 PM 33.8 °F 26.4 °F 21.2 °F 60% 30.23 in 10.0 mi SW 9.2 mph 16.1 mph N/A   Overcast
1:55 PM 35.6 °F 28.0 °F 19.4 °F 52% 30.22 in 9.0 mi SW 10.4 mph - N/A   Mostly Cloudy
2:15 PM 35.6 °F 28.6 °F 21.2 °F 56% 30.21 in 9.0 mi SW 9.2 mph - N/A   Mostly Cloudy
2:35 PM 35.6 °F 29.2 °F 21.2 °F 56% 30.20 in 10.0 mi SSW 8.1 mph - N/A   Mostly Cloudy
2:55 PM 35.6 °F 28.6 °F 19.4 °F 52% 30.19 in 10.0 mi SW 9.2 mph - N/A   Mostly Cloudy
3:15 PM 35.6 °F 28.6 °F 19.4 °F 52% 30.19 in 10.0 mi SSW 9.2 mph - N/A   Scattered Clouds
3:35 PM 35.6 °F 28.6 °F 19.4 °F 52% 30.18 in 10.0 mi SW 9.2 mph - N/A   Mostly Cloudy
3:55 PM 35.6 °F 30.7 °F 21.2 °F 56% 30.18 in 10.0 mi SW 5.8 mph - N/A   Mostly Cloudy
4:15 PM 35.6 °F 29.2 °F 21.2 °F 56% 30.18 in 10.0 mi SW 8.1 mph - N/A   Mostly Cloudy
4:35 PM 35.6 °F 29.2 °F 19.4 °F 52% 30.18 in 10.0 mi SW 8.1 mph - N/A   Overcast
4:55 PM 35.6 °F 28.6 °F 21.2 °F 56% 30.18 in 9.0 mi SW 9.2 mph - N/A   Mostly Cloudy
5:15 PM 35.6 °F 28.6 °F 21.2 °F 56% 30.18 in 10.0 mi SW 9.2 mph - N/A   Mostly Cloudy
5:35 PM 33.8 °F 27.7 °F 21.2 °F 60% 30.18 in 10.0 mi SW 6.9 mph - N/A   Mostly Cloudy
5:55 PM 33.8 °F 27.7 °F 21.2 °F 60% 30.18 in 10.0 mi SW 6.9 mph - N/A   Mostly Cloudy
6:15 PM 33.8 °F - 21.2 °F 60% 30.18 in 10.0 mi Calm Calm - N/A   Overcast
6:35 PM 33.8 °F 29.6 °F 23.0 °F 65% 30.18 in 10.0 mi SSW 4.6 mph - N/A   Overcast
6:55 PM 33.8 °F 30.8 °F 21.2 °F 60% 30.18 in 10.0 mi SSW 3.5 mph - N/A   Overcast
7:15 PM 33.8 °F 30.8 °F 23.0 °F 65% 30.18 in 10.0 mi South 3.5 mph - N/A   Overcast
7:35 PM 33.8 °F 29.6 °F 23.0 °F 65% 30.17 in 10.0 mi South 4.6 mph - N/A   Overcast
7:55 PM 33.8 °F - 23.0 °F 65% 30.16 in 10.0 mi Calm Calm - N/A   Overcast
8:15 PM 33.8 °F 29.6 °F 23.0 °F 65% 30.16 in 10.0 mi South 4.6 mph - N/A   Overcast
8:35 PM 33.8 °F - 23.0 °F 65% 30.16 in 10.0 mi Calm Calm - N/A   Overcast
8:55 PM 33.8 °F 28.6 °F 23.0 °F 65% 30.15 in 10.0 mi SSE 5.8 mph - N/A   Overcast
9:15 PM 33.8 °F 28.6 °F 23.0 °F 65% 30.15 in 10.0 mi SSE 5.8 mph - N/A   Overcast
9:35 PM 33.8 °F 28.6 °F 23.0 °F 65% 30.15 in 10.0 mi South 5.8 mph - N/A   Overcast
9:55 PM 33.8 °F 27.0 °F 23.0 °F 65% 30.15 in 10.0 mi South 8.1 mph - N/A   Overcast
10:15 PM 33.8 °F - 23.0 °F 65% 30.14 in 10.0 mi Calm Calm - N/A   Overcast
10:35 PM 33.8 °F 29.6 °F 23.0 °F 65% 30.14 in 10.0 mi SSE 4.6 mph - N/A   Overcast
10:55 PM 33.8 °F 30.8 °F 23.0 °F 65% 30.13 in 10.0 mi SE 3.5 mph - N/A   Overcast
11:15 PM 33.8 °F 29.6 °F 23.0 °F 65% 30.13 in 10.0 mi SE 4.6 mph - N/A   Overcast
11:35 PM 33.8 °F - 23.0 °F 65% 30.13 in 10.0 mi Calm Calm - N/A   Overcast
11:55 PM 33.8 °F 28.6 °F 23.0 °F 65% 30.12 in 10.0 mi SSE 5.8 mph - N/A   Overcast